TimeGMT,TemperatureF,Dew PointF,Humidity,Sea Level PressureIn,VisibilityMPH,Wind Direction,Wind SpeedMPH,Gust SpeedMPH,PrecipitationIn,Events,Conditions,WindDirDegrees,DateUTC
12:50 AM,51.8,44.6,76,29.83,6.2,SW,20.7,-,N/A,,Mostly Cloudy,230,2012-12-31 00:50:00
1:50 AM,50.0,46.4,87,29.80,6.2,SW,25.3,36.8,N/A,,Scattered Clouds,220,2012-12-31 01:50:00
2:50 AM,50,47,84,29.82,6,SW,20.7,,,Rain,Light Rain Showers,220,2012-12-31 02:50:00
2:50 AM,50.0,46.4,87,29.80,6.2,SW,20.7,-,N/A,Rain,Light Rain Showers,220,2012-12-31 02:50:00
3:50 AM,50.0,46.4,87,29.77,3.1,SW,20.7,-,N/A,Rain,Light Rain,220,2012-12-31 03:50:00
4:50 AM,50.0,48.2,94,29.74,4.3,SW,26.5,-,N/A,Rain,Rain,220,2012-12-31 04:50:00
5:50 AM,50,46,83,29.72,9,SW,25.3,,,Rain,Light Rain Showers,220,2012-12-31 05:50:00
5:50 AM,50.0,46.4,87,29.71,6.2,SW,25.3,-,N/A,Rain,Light Rain Showers,220,2012-12-31 05:50:00
6:50 AM,50.0,46.4,87,29.68,3.1,SW,24.2,-,N/A,Rain,Rain Showers,220,2012-12-31 06:50:00
7:50 AM,50.0,48.2,94,29.65,6.2,SSW,26.5,-,N/A,Rain,Rain,210,2012-12-31 07:50:00
8:50 AM,50,47,85,29.65,11,SW,26.5,,,Rain,Rain,220,2012-12-31 08:50:00
8:50 AM,50.0,46.4,87,29.62,6.2,SW,26.5,-,N/A,,Mostly Cloudy,220,2012-12-31 08:50:00
9:50 AM,50.0,46.4,87,29.62,6.2,SW,26.5,-,N/A,,Mostly Cloudy,220,2012-12-31 09:50:00
10:50 AM,50.0,48.2,94,29.59,4.3,SSW,26.5,-,N/A,Rain,Light Rain Showers,210,2012-12-31 10:50:00
11:50 AM,50,48,90,29.57,5,SSW,27.6,,,Rain,Rain,210,2012-12-31 11:50:00
11:50 AM,50.0,48.2,94,29.53,5.0,SSW,27.6,-,N/A,Rain,Rain,210,2012-12-31 11:50:00
12:50 PM,50.0,48.2,94,29.50,5.6,SSW,25.3,36.8,N/A,Rain,Rain,210,2012-12-31 12:50:00
1:50 PM,50.0,48.2,94,29.47,3.1,SSW,24.2,-,N/A,Rain,Rain,210,2012-12-31 13:50:00
2:50 PM,50,49,94,29.48,14,West,12.7,,,Rain,Light Drizzle,270,2012-12-31 14:50:00
2:50 PM,50.0,48.2,94,29.47,6.2,West,12.7,-,N/A,,Light Drizzle,270,2012-12-31 14:50:00
3:50 PM,50.0,46.4,87,29.47,6.2,SW,13.8,-,N/A,Rain,Light Rain Showers,230,2012-12-31 15:50:00
4:50 PM,48.2,46.4,93,29.47,6.2,SSW,12.7,-,N/A,,Mostly Cloudy,210,2012-12-31 16:50:00
5:50 PM,49,47,89,29.51,19,SW,11.5,,,,Scattered Clouds,220,2012-12-31 17:50:00
5:50 PM,48.2,46.4,93,29.47,6.2,SW,11.5,-,N/A,,Mostly Cloudy,220,2012-12-31 17:50:00
6:50 PM,48.2,46.4,93,29.47,6.2,WSW,8.1,-,N/A,,Mostly Cloudy,240,2012-12-31 18:50:00
7:50 PM,48.2,44.6,87,29.50,6.2,WSW,10.4,-,N/A,,Mostly Cloudy,250,2012-12-31 19:50:00
8:50 PM,47,44,86,29.52,8,WSW,10.4,,,,Scattered Clouds,250,2012-12-31 20:50:00
8:50 PM,48.2,44.6,87,29.50,6.2,WSW,10.4,-,N/A,,Mostly Cloudy,250,2012-12-31 20:50:00
9:50 PM,46.4,44.6,93,29.50,6.2,WSW,8.1,-,N/A,,Mostly Cloudy,250,2012-12-31 21:50:00
10:50 PM,46.4,44.6,93,29.50,6.2,WSW,8.1,-,N/A,,Mostly Cloudy,240,2012-12-31 22:50:00
11:50 PM,47,44,86,29.55,15,West,10.4,,,Rain,Rain,270,2012-12-31 23:50:00
11:50 PM,46.4,44.6,93,29.53,6.2,West,10.4,-,N/A,,Mostly Cloudy,270,2012-12-31 23:50:00